TIANTONG-1 1

Last updated on Thu Aug 13 2026 00:03:00 GMT+0000 (Coordinated Universal Time)

1 41725U 16048A 26224.60384552 -.00000334 00000+0 00000+0 0 9996 2 41725 3.9553 43.8047 0003728 66.9646 169.0416 1.00274121 36834
UTC large
Height (km)
Speed (km/s)
/
Latitude / Longitude
Inclination (degrees)
Orbital Period (minutes)
Azimuth
Elevation
Range (km)
Doppler Factor

Next 0 passes for location: London (51.5072 / 0.1276)

No passes found over London.
TIANTONG-1 1